Tracking 19170 objects as of 22-May-2018
HD Live streaming from Space Station
objects crossing your sky now

NILESAT 102

Track NILESAT 102 now!
NILESAT 102 is classified as:


NORAD ID: 26470
Int'l Code: 2000-046B
Perigee: 35,776.9 km
Apogee: 35,810.2 km
Inclination: 2.4 °
Period: 1,436.1 minutes
Semi major axis: 42164 km
RCS: 27.8959 m2 (large)
Launch date: August 17, 2000
Source: Egypt (EGYP)
Launch site: FRENCH GUIANA (FRGUI)

Large parts of the Arab world, the Middle East, north and central Africa and southern Europe.
aabbcc
Your satellite tracking list
Your tracking list is empty




NASA's NSSDC Master Catalog

Two Line Element Set (TLE):
1 26470U 00046B   18142.34125833 -.00000075 +00000-0 +00000-0 0  9997
2 26470 002.3934 082.0761 0003948 327.3682 306.3237 01.00272351015631
Source of the keplerian elements: AFSPC